FOX-1D (AO-92) (43137 NORAD) Tracking and Keplerian Element Data

This shows tracking and keplerian element data for the satellite.

Feedback or suggestion? Click here.




ElementValue
Catalog43137
NameFOX-1D (AO-92)
Epoch Orbit14318
Epoch Day222.8589693
Epoch Year2020
RAAN293.6532
Inclination97.4428
Eccentricity0.0008002
Argument of Perigee219.8857
Mean Anonmoly140.1793
Mean Motion15.24209425
Decay Rate8.56E-06
L11 43137U 18004AC 20222.85896930 .00000856 00000-0 38040-4 0 9995
L22 43137 97.4428 293.6532 0008002 219.8857 140.1793 15.24209425143180

Live tracking and technical data element details for FOX-1D (AO-92) (NORAD 43137). FOX-1D (AO-92) can be tracked NOW for your location showing map with azimuth and elevation plus other details from your city location.

Track the satellite on the map from your city or location and see movement details for azimuth, elevation, latitude, longitude, range, height, and movement on the map or in text.







IsCatalogInMostPopularTable: catalog: 43137, numindb: 1746
Update: records affected: 1



GetName: 43137 FOX-1D (AO-92)

Hit Count: updated at: Mon, 10 Aug 2020 22:36:05 GMT